Weather History for KCEY - April, 2013

Change the Weather History Date:

Sunday, April 21, 2013

  Actual Average (KPAH) Record (KPAH)
Temperature  
Mean Temperature 50 °F 60 °F  
Max Temperature 62 °F 71 °F 90 °F (1987)
Min Temperature 39 °F 48 °F 30 °F (1943)
Degree Days  
Heating Degree Days 14 7  
Month to date heating degree days 197  
Since 1 July heating degree days 4016  
Cooling Degree Days 0 1  
Month to date cooling degree days 21  
Year to date cooling degree days 28  
Moisture  
Dew Point 32 °F    
Average Humidity 46    
Maximum Humidity 75    
Minimum Humidity 29    
Precipitation  
Precipitation 0.00 in 0.18 in 2.13 in (1951)
Month to date precipitation 3.21  
Year to date precipitation 14.73  
Snow  
Snow 0.00 in 0.00 in 0.00 in (2002)
Month to date snowfall 0.0  
Since 1 July snowfall 9.1  
Snow Depth -    
Sea Level Pressure  
Sea Level Pressure 30.32 in    
Wind  
Wind Speed 7 mph (East)    
Max Wind Speed 14 mph    
Max Gust Speed 22 mph    
Visibility 10 miles    
Events      
T = Trace of Precipitation, MM = Missing Value Source: NWS Daily Summary

Daily Weather History Graph

Daily Weather History Graph

Search for Another Location

Airport or City:

Trip Planner

Search our weather history database for the weather conditions in past years. The results will help you decide how hot, cold, wet, or windy it might be!

Date:

Astronomy

Apr. 21, 2013 Rise Set
Actual Time 6:11 AM CDT 7:33 PM CDT
Civil Twilight 5:44 AM CDT 8:00 PM CDT
Nautical Twilight 5:12 AM CDT 8:32 PM CDT
Astronomical Twilight 4:38 AM CDT 9:06 PM CDT
Moon 3:24 PM CDT (4/21) 3:26 AM CDT (4/21)
Length of Visible Light 14h 16m
Length of Day
13h 21m
Waxing Gibbous, 80% of the Moon is Illuminated
Apr 21
Waxing Gibbous
Apr 25
Full
May 2
Last Quarter
May 9
New
May 17
First Quarter

Hourly Weather History & Observations

Time (CDT) Temp. Windchill Dew Point Humidity Pressure Visibility Wind Dir Wind Speed Gust Speed Precip Events Conditions
12:15 AM 46.4 °F 43.5 °F 33.8 °F 62% 30.32 in 10.0 mi East 5.8 mph - N/A   Clear
12:35 AM 44.6 °F 41.4 °F 33.8 °F 66% 30.32 in 10.0 mi East 5.8 mph - N/A   Clear
12:55 AM 44.6 °F 41.4 °F 32.0 °F 61% 30.32 in 10.0 mi East 5.8 mph - N/A   Clear
1:15 AM 44.6 °F 41.4 °F 32.0 °F 61% 30.32 in 10.0 mi East 5.8 mph - N/A   Clear
1:35 AM 44.6 °F 41.4 °F 32.0 °F 61% 30.32 in 10.0 mi East 5.8 mph - N/A   Clear
4:35 AM 41.0 °F 38.0 °F 30.2 °F 65% 30.34 in 10.0 mi East 4.6 mph - N/A   Clear
4:55 AM 41.0 °F 38.0 °F 30.2 °F 65% 30.34 in 10.0 mi ENE 4.6 mph - N/A   Clear
5:15 AM 39.2 °F 35.0 °F 28.4 °F 65% 30.34 in 10.0 mi East 5.8 mph - N/A   Clear
5:35 AM 39.2 °F 35.0 °F 28.4 °F 65% 30.34 in 10.0 mi East 5.8 mph - N/A   Clear
5:55 AM 39.2 °F 35.9 °F 28.4 °F 65% 30.35 in 10.0 mi ENE 4.6 mph - N/A   Clear
6:35 AM 39.2 °F 35.9 °F 28.4 °F 65% 30.37 in 10.0 mi ENE 4.6 mph - N/A   Clear
6:55 AM 39.2 °F 35.9 °F 32.0 °F 75% 30.38 in 10.0 mi ENE 4.6 mph - N/A   Clear
7:35 AM 42.8 °F 38.6 °F 32.0 °F 66% 30.39 in 10.0 mi ENE 6.9 mph - N/A   Clear
7:55 AM 44.6 °F 39.7 °F 32.0 °F 61% 30.39 in 10.0 mi ENE 9.2 mph - N/A   Clear
8:15 AM 46.4 °F 42.4 °F 32.0 °F 57% 30.39 in 10.0 mi ENE 8.1 mph - N/A   Clear
8:35 AM 46.4 °F 41.9 °F 32.0 °F 57% 30.39 in 10.0 mi ENE 9.2 mph - N/A   Clear
8:55 AM 48.2 °F - 32.0 °F 54% 30.40 in 10.0 mi East 6.9 mph - N/A   Clear
9:15 AM 50.0 °F - 32.0 °F 50% 30.40 in 10.0 mi East 11.5 mph - N/A   Clear
9:35 AM 51.8 °F - 35.6 °F 54% 30.40 in 10.0 mi East 9.2 mph - N/A   Clear
9:55 AM 51.8 °F - 33.8 °F 50% 30.40 in 10.0 mi ENE 9.2 mph - N/A   Clear
10:15 AM 53.6 °F - 32.0 °F 44% 30.41 in 10.0 mi East 8.1 mph - N/A   Clear
10:35 AM 55.4 °F - 35.6 °F 47% 30.40 in 10.0 mi ESE 8.1 mph - N/A   Clear
10:55 AM 55.4 °F - 33.8 °F 44% 30.40 in 10.0 mi ENE 12.7 mph - N/A   Clear
11:15 AM 57.2 °F - 32.0 °F 38% 30.40 in 10.0 mi ESE 6.9 mph 19.6 mph N/A   Clear
11:35 AM 57.2 °F - 32.0 °F 38% 30.39 in 10.0 mi ESE 13.8 mph 18.4 mph N/A   Clear
11:55 AM 57.2 °F - 32.0 °F 38% 30.38 in 10.0 mi East 11.5 mph - N/A   Clear
12:15 PM 59.0 °F - 32.0 °F 36% 30.37 in 10.0 mi ENE 13.8 mph 17.3 mph N/A   Clear
12:35 PM 59.0 °F - 32.0 °F 36% 30.36 in 10.0 mi ENE 4.6 mph - N/A   Clear
12:55 PM 59.0 °F - 28.4 °F 31% 30.35 in 10.0 mi ENE 9.2 mph - N/A   Clear
1:15 PM 60.8 °F - 28.4 °F 29% 30.34 in 10.0 mi NE 11.5 mph 17.3 mph N/A   Clear
1:35 PM 62.6 °F - 32.0 °F 32% 30.33 in 10.0 mi East 10.4 mph - N/A   Clear
1:55 PM 62.6 °F - 30.2 °F 30% 30.32 in 10.0 mi East 9.2 mph - N/A   Clear
2:15 PM 62.6 °F - 32.0 °F 32% 30.31 in 10.0 mi East 11.5 mph 18.4 mph N/A   Clear
2:35 PM 62.6 °F - 32.0 °F 32% 30.30 in 10.0 mi East 12.7 mph - N/A   Clear
2:55 PM 62.6 °F - 32.0 °F 32% 30.29 in 10.0 mi East 10.4 mph - N/A   Clear
3:15 PM 62.6 °F - 32.0 °F 32% 30.28 in 10.0 mi East 10.4 mph 21.9 mph N/A   Clear
3:35 PM 62.6 °F - 32.0 °F 32% 30.28 in 10.0 mi NE 6.9 mph - N/A   Clear
3:55 PM 62.6 °F - 32.0 °F 32% 30.26 in 10.0 mi ENE 11.5 mph 16.1 mph N/A   Clear
4:15 PM 62.6 °F - 32.0 °F 32% 30.26 in 10.0 mi East 6.9 mph - N/A   Clear
4:35 PM 62.6 °F - 32.0 °F 32% 30.26 in 10.0 mi SE 3.5 mph - N/A   Clear
4:55 PM 62.6 °F - 30.2 °F 30% 30.26 in 10.0 mi East 6.9 mph - N/A   Clear
5:15 PM 62.6 °F - 30.2 °F 30% 30.25 in 10.0 mi East 9.2 mph - N/A   Clear
5:35 PM 62.6 °F - 32.0 °F 32% 30.25 in 10.0 mi East 8.1 mph - N/A   Clear
5:55 PM 60.8 °F - 32.0 °F 34% 30.25 in 10.0 mi ESE 6.9 mph - N/A   Clear
6:15 PM 59.0 °F - 30.2 °F 34% 30.25 in 10.0 mi ESE 9.2 mph - N/A   Clear
6:55 PM 59.0 °F - 32.0 °F 36% 30.26 in 10.0 mi ESE 4.6 mph - N/A   Clear
7:15 PM 55.4 °F - 35.6 °F 47% 30.26 in 10.0 mi East 4.6 mph - N/A   Clear
7:35 PM 55.4 °F - 32.0 °F 41% 30.27 in 10.0 mi East 4.6 mph - N/A   Clear
7:55 PM 55.4 °F - 33.8 °F 44% 30.27 in 10.0 mi East 4.6 mph - N/A   Clear
8:15 PM 53.6 °F - 33.8 °F 47% 30.27 in 10.0 mi East 5.8 mph - N/A   Clear
8:35 PM 53.6 °F - 32.0 °F 44% 30.27 in 10.0 mi ENE 5.8 mph - N/A   Clear
8:55 PM 53.6 °F - 32.0 °F 44% 30.27 in 10.0 mi East 5.8 mph - N/A   Clear
9:15 PM 53.6 °F - 32.0 °F 44% 30.27 in 10.0 mi East 5.8 mph - N/A   Clear
9:35 PM 53.6 °F - 32.0 °F 44% 30.27 in 10.0 mi East 5.8 mph - N/A   Clear
9:55 PM 53.6 °F - 32.0 °F 44% 30.27 in 10.0 mi ESE 5.8 mph - N/A   Clear
10:15 PM 53.6 °F - 32.0 °F 44% 30.27 in 10.0 mi East 4.6 mph - N/A   Clear
10:55 PM 50.0 °F - 33.8 °F 54% 30.27 in 10.0 mi East 5.8 mph - N/A   Unknown
11:15 PM 50.0 °F - 33.8 °F 54% 30.27 in 10.0 mi East 5.8 mph - N/A   Clear
11:35 PM 50.0 °F - 33.8 °F 54% 30.27 in 10.0 mi East 4.6 mph - N/A   Clear
11:55 PM 50.0 °F - 33.8 °F 54% 30.27 in 10.0 mi East 4.6 mph - N/A   Clear